TimeMST,TemperatureF,Dew PointF,Humidity,Sea Level PressureIn,VisibilityMPH,Wind Direction,Wind SpeedMPH,Gust SpeedMPH,PrecipitationIn,Events,Conditions,WindDirDegrees,DateUTC
12:15 AM,37.9,11.3,33,30.10,10.0,South,10.4,-,N/A,,Clear,170,2013-03-07 07:15:00
12:35 AM,38.3,12.0,34,30.09,10.0,Calm,Calm,-,N/A,,Clear,0,2013-03-07 07:35:00
12:55 AM,40.1,12.2,32,30.10,10.0,SSW,9.2,-,N/A,,Clear,200,2013-03-07 07:55:00
1:15 AM,38.3,12.6,35,30.10,10.0,SSW,8.1,-,N/A,,Clear,200,2013-03-07 08:15:00
1:35 AM,38.3,13.1,36,30.10,10.0,South,5.8,-,N/A,,Clear,190,2013-03-07 08:35:00
1:55 AM,36.0,13.8,40,30.10,10.0,SW,5.8,-,N/A,,Clear,220,2013-03-07 08:55:00
2:15 AM,32.5,12.7,44,30.10,10.0,Calm,Calm,-,N/A,,Clear,0,2013-03-07 09:15:00
2:35 AM,28.0,7.9,43,30.09,10.0,Calm,Calm,-,N/A,,Clear,0,2013-03-07 09:35:00
2:55 AM,27.9,7.3,42,30.09,10.0,Calm,Calm,-,N/A,,Clear,0,2013-03-07 09:55:00
3:15 AM,24.6,6.4,46,30.09,10.0,NW,8.1,-,N/A,,Clear,310,2013-03-07 10:15:00
3:35 AM,23.2,5.0,46,30.09,10.0,NNW,5.8,-,N/A,,Clear,340,2013-03-07 10:35:00
3:55 AM,23.4,5.2,46,30.09,10.0,NW,5.8,-,N/A,,Clear,310,2013-03-07 10:55:00
4:15 AM,24.8,6.4,46,30.09,10.0,NW,6.9,-,N/A,,Clear,320,2013-03-07 11:15:00
4:35 AM,23.4,6.1,48,30.09,10.0,NW,5.8,-,N/A,,Clear,310,2013-03-07 11:35:00
4:55 AM,22.1,5.0,48,30.10,10.0,NNW,5.8,-,N/A,,Clear,330,2013-03-07 11:55:00
5:15 AM,21.6,5.2,49,30.10,10.0,NW,5.8,-,N/A,,Clear,320,2013-03-07 12:15:00
5:35 AM,20.1,4.8,52,30.10,10.0,NW,5.8,-,N/A,,Clear,320,2013-03-07 12:35:00
5:55 AM,20.5,4.8,51,30.11,10.0,NW,5.8,-,N/A,,Clear,310,2013-03-07 12:55:00
6:15 AM,21.4,6.1,52,30.11,10.0,NW,9.2,-,N/A,,Clear,310,2013-03-07 13:15:00
6:35 AM,21.0,5.7,52,30.12,10.0,NW,8.1,-,N/A,,Clear,320,2013-03-07 13:35:00
6:55 AM,21.2,5.7,51,30.12,10.0,NW,6.9,-,N/A,,Clear,320,2013-03-07 13:55:00
7:15 AM,24.4,6.8,47,30.12,10.0,NNW,6.9,-,N/A,,Clear,330,2013-03-07 14:15:00
7:35 AM,26.6,8.1,46,30.13,10.0,NW,8.1,-,N/A,,Clear,310,2013-03-07 14:35:00
7:55 AM,30.6,9.7,42,30.13,10.0,WNW,8.1,-,N/A,,Clear,300,2013-03-07 14:55:00
8:15 AM,34.5,12.0,39,30.13,10.0,WNW,5.8,-,N/A,,Clear,300,2013-03-07 15:15:00
8:35 AM,36.9,13.1,38,30.14,10.0,Calm,Calm,-,N/A,,Clear,0,2013-03-07 15:35:00
8:55 AM,41.0,15.6,36,30.13,10.0,Calm,Calm,-,N/A,,Clear,0,2013-03-07 15:55:00
9:15 AM,45.7,16.5,31,30.13,10.0,Calm,Calm,-,N/A,,Clear,0,2013-03-07 16:15:00
9:35 AM,49.3,18.0,29,30.12,10.0,SE,4.6,-,N/A,,Clear,130,2013-03-07 16:35:00
9:55 AM,52.3,19.4,27,30.12,10.0,ESE,10.4,-,N/A,,Clear,120,2013-03-07 16:55:00
10:15 AM,55.2,20.7,26,30.11,10.0,SE,8.1,-,N/A,,Clear,140,2013-03-07 17:15:00
10:35 AM,57.2,21.2,25,30.10,10.0,ESE,8.1,-,N/A,,Clear,120,2013-03-07 17:35:00
10:55 AM,59.5,20.1,22,30.09,10.0,SE,9.2,16.1,N/A,,Clear,130,2013-03-07 17:55:00
11:15 AM,61.3,19.0,20,30.09,10.0,ESE,10.4,20.7,N/A,,Clear,120,2013-03-07 18:15:00
11:35 AM,61.7,16.5,17,30.07,10.0,ESE,11.5,19.6,N/A,,Clear,110,2013-03-07 18:35:00
11:55 AM,63.3,14.9,15,30.07,10.0,ESE,4.6,-,N/A,,Clear,110,2013-03-07 18:55:00
12:15 PM,64.9,12.0,13,30.06,10.0,South,3.5,20.7,N/A,,Clear,170,2013-03-07 19:15:00
12:35 PM,65.8,4.5,9,30.05,10.0,WSW,10.4,-,N/A,,Clear,240,2013-03-07 19:35:00
12:55 PM,66.2,2.5,8,30.04,10.0,SW,3.5,17.3,N/A,,Clear,220,2013-03-07 19:55:00
1:15 PM,66.7,3.0,8,30.03,10.0,WSW,13.8,23.0,N/A,,Clear,240,2013-03-07 20:15:00
1:35 PM,66.7,5.5,9,30.01,10.0,West,15.0,20.7,N/A,,Clear,280,2013-03-07 20:35:00
1:55 PM,66.4,6.6,10,30.00,10.0,West,6.9,-,N/A,,Clear,270,2013-03-07 20:55:00
2:15 PM,68.2,10.4,11,30.00,10.0,WSW,10.4,23.0,N/A,,Clear,240,2013-03-07 21:15:00
2:35 PM,66.6,11.8,12,29.99,10.0,SSW,12.7,17.3,N/A,,Clear,210,2013-03-07 21:35:00
2:55 PM,65.8,10.8,12,29.98,10.0,WSW,11.5,18.4,N/A,,Scattered Clouds,240,2013-03-07 21:55:00
3:15 PM,69.1,11.3,11,29.98,10.0,South,11.5,20.7,N/A,,Scattered Clouds,170,2013-03-07 22:15:00
3:35 PM,67.5,12.4,12,29.98,10.0,West,6.9,17.3,N/A,,Scattered Clouds,260,2013-03-07 22:35:00
3:55 PM,68.2,12.0,11,29.98,10.0,South,10.4,23.0,N/A,,Scattered Clouds,170,2013-03-07 22:55:00
4:15 PM,67.6,10.8,11,29.98,10.0,SW,12.7,20.7,N/A,,Scattered Clouds,220,2013-03-07 23:15:00
4:35 PM,67.5,9.7,11,29.97,10.0,SW,13.8,19.6,N/A,,Scattered Clouds,230,2013-03-07 23:35:00
4:55 PM,64.4,9.0,11,29.97,10.0,SSW,12.7,18.4,N/A,,Scattered Clouds,200,2013-03-07 23:55:00
6:35 PM,59.9,10.4,14,29.98,10.0,Calm,Calm,-,N/A,,Overcast,0,2013-03-08 01:35:00
6:55 PM,54.5,10.6,17,29.98,10.0,WSW,8.1,-,N/A,,Overcast,240,2013-03-08 01:55:00
7:15 PM,55.6,11.3,17,29.99,10.0,West,6.9,-,N/A,,Mostly Cloudy,260,2013-03-08 02:15:00
7:35 PM,50.2,10.9,21,30.00,10.0,NNW,3.5,-,N/A,,Scattered Clouds,340,2013-03-08 02:35:00
7:55 PM,48.2,10.8,22,30.00,10.0,Calm,Calm,-,N/A,,Clear,0,2013-03-08 02:55:00
8:15 PM,52.7,10.4,18,30.01,10.0,West,6.9,-,N/A,,Clear,260,2013-03-08 03:15:00
8:35 PM,51.6,10.0,19,30.01,10.0,West,4.6,-,N/A,,Clear,280,2013-03-08 03:35:00
8:55 PM,49.1,10.0,21,30.03,10.0,NE,3.5,-,N/A,,Clear,40,2013-03-08 03:55:00
9:15 PM,46.6,10.6,23,30.04,10.0,SSW,4.6,-,N/A,,Clear,200,2013-03-08 04:15:00
9:35 PM,41.7,9.3,27,30.04,10.0,North,5.8,-,N/A,,Clear,10,2013-03-08 04:35:00
9:55 PM,47.5,9.7,22,30.05,10.0,NW,3.5,-,N/A,,Clear,310,2013-03-08 04:55:00
10:15 PM,48.0,10.9,22,30.05,10.0,Calm,Calm,-,N/A,,Clear,0,2013-03-08 05:15:00
10:35 PM,43.7,10.9,26,30.04,10.0,West,3.5,-,N/A,,Clear,270,2013-03-08 05:35:00
10:55 PM,42.8,10.6,27,30.04,10.0,NNW,3.5,-,N/A,,Clear,330,2013-03-08 05:55:00
11:15 PM,35.8,9.3,33,30.05,10.0,SW,4.6,-,N/A,,Clear,230,2013-03-08 06:15:00
11:35 PM,39.9,11.8,32,30.04,10.0,Calm,Calm,-,N/A,,Clear,0,2013-03-08 06:35:00
11:55 PM,39.4,11.3,32,30.04,10.0,Calm,Calm,-,N/A,,Clear,0,2013-03-08 06:55:00